Location: ??????????
(54.7560°N, 39.1389°E)
Time: 06:34:37
(UTC+00:00)

COSMOS 2406 - Pass Details

Date: 19 May 2025
Orbit: 845 x 859 km, 71.0° (Epoch: 23 June)

Event Time Altitude Azimuth Distance (km) Brightness Sun altitude
Exits shadow 21:59:09 - 244° (WSW) 3,026 5.7 -14.8°
Reaches altitude 10° 22:00:42 10° 250° (WSW) 2,476 5.3 -14.8°
Maximum altitude 22:06:01 39° 318° (NW) 1,266 4.4 -14.6°
Drops below altitude 10° 22:11:21 10° 27° (NNE) 2,496 6.9 -14.5°
Sets 22:14:00 0° 35° (NE) 3,438 7.7 -14.4°
